Fort Loudoun Lake Weather Center

Moon Phase Calendar



Fort Loudoun Lake Water Level
Online Cameras

 


      

Current Conditions in Louisville
1/27/2022 4:22:00 PM

49°F
Feels Like 48
Clouds
Humidity
43%
Pressure
30.18"
Wind
3.4 mph (N)
Dew Point
28°F
UV Index
1/10 (Low)
Visibility
6 mi

Hourly Forecast

Date & Time Thu, Jan 27
4:00 PM
Thu, Jan 27
5:00 PM
Thu, Jan 27
6:00 PM
Thu, Jan 27
7:00 PM
Thu, Jan 27
8:00 PM
Thu, Jan 27
9:00 PM
Thu, Jan 27
10:00 PM
Thu, Jan 27
11:00 PM
Fri, Jan 28
12:00 AM
Fri, Jan 28
1:00 AM
Fri, Jan 28
2:00 AM
Fri, Jan 28
3:00 AM
Fri, Jan 28
4:00 AM
Fri, Jan 28
5:00 AM
Fri, Jan 28
6:00 AM
Fri, Jan 28
7:00 AM
Fri, Jan 28
8:00 AM
Fri, Jan 28
9:00 AM
Fri, Jan 28
10:00 AM
Fri, Jan 28
11:00 AM
Fri, Jan 28
12:00 PM
Fri, Jan 28
1:00 PM
Fri, Jan 28
2:00 PM
Fri, Jan 28
3:00 PM
Fri, Jan 28
4:00 PM
Fri, Jan 28
5:00 PM
Fri, Jan 28
6:00 PM
Fri, Jan 28
7:00 PM
Fri, Jan 28
8:00 PM
Fri, Jan 28
9:00 PM
Fri, Jan 28
10:00 PM
Fri, Jan 28
11:00 PM
Sat, Jan 29
12:00 AM
Sat, Jan 29
1:00 AM
Sat, Jan 29
2:00 AM
Sat, Jan 29
3:00 AM
Sat, Jan 29
4:00 AM
Sat, Jan 29
5:00 AM
Sat, Jan 29
6:00 AM
Sat, Jan 29
7:00 AM
Sat, Jan 29
8:00 AM
Sat, Jan 29
9:00 AM
Sat, Jan 29
10:00 AM
Sat, Jan 29
11:00 AM
Sat, Jan 29
12:00 PM
Sat, Jan 29
1:00 PM
Sat, Jan 29
2:00 PM
Sat, Jan 29
3:00 PM
Condition
Clouds

Clouds

Clouds

Clouds

Clouds

Clouds

Clouds

Clouds

Clouds

Clouds

Clouds

Clouds

Clouds

Clouds

Clouds

Clouds

Clouds

Clouds

Clouds

Clouds

Clouds

Clouds

Clouds

Clouds

Snow

Clouds

Clouds

Clouds

Clouds

Clouds

Clouds

Clouds

Clouds

Clouds

Clouds

Clouds

Clouds

Clouds

Clouds

Clouds

Clear

Clear

Clouds

Clouds

Clear

Clear

Clear

Clear
Temperature 49°F48°F45°F42°F38°F35°F35°F34°F34°F34°F33°F32°F32°F32°F32°F32°F32°F34°F37°F39°F41°F40°F38°F37°F36°F35°F32°F30°F28°F28°F26°F25°F24°F24°F23°F21°F20°F18°F17°F16°F16°F18°F20°F23°F25°F28°F30°F31°F
Feels Like 46°F46°F43°F42°F38°F35°F35°F34°F34°F34°F33°F32°F32°F32°F32°F32°F32°F34°F37°F37°F38°F36°F33°F32°F30°F27°F24°F22°F21°F19°F17°F17°F15°F14°F13°F11°F10°F9°F8°F7°F7°F8°F10°F14°F17°F21°F24°F26°F
Cloudiness 20%22%28%38%84%100%100%100%100%100%100%100%100%100%100%100%100%95%85%82%84%87%100%100%100%100%98%88%77%79%72%72%69%72%72%66%70%63%55%49%9%10%13%11%9%8%0%0%
Visibility 6 mi6 mi6 mi6 mi6 mi6 mi6 mi6 mi6 mi6 mi6 mi6 mi6 mi6 mi6 mi6 mi6 mi6 mi6 mi6 mi6 mi6 mi6 mi5 mi6 mi6 mi6 mi6 mi6 mi6 mi6 mi6 mi6 mi6 mi6 mi6 mi6 mi6 mi6 mi6 mi6 mi6 mi6 mi6 mi6 mi6 mi6 mi6 mi
Precipitation 0%0%0%0%0%0%0%0%0%0%0%0%0%0%0%0%0%0%0%0%0%0%4%31%52%55%50%50%26%29%30%39%37%31%31%25%25%25%21%21%3%0%0%0%0%0%0%0%
Humidity 43%46%53%59%67%73%75%77%78%79%81%82%83%82%80%77%72%63%51%47%49%59%72%74%72%71%70%75%78%74%70%67%73%72%69%69%68%67%66%65%65%56%47%39%33%29%26%24%
Dew Point 28°F28°F29°F29°F29°F28°F28°F28°F28°F28°F27°F27°F27°F27°F26°F25°F23°F22°F20°F20°F23°F27°F30°F30°F28°F26°F23°F22°F22°F20°F18°F15°F16°F16°F14°F12°F10°F8°F7°F6°F5°F4°F2°F1°F0°F-1°F-1°F-2°F
Pressure 30.18"30.18"30.21"30.24"30.24"30.27"30.24"30.24"30.24"30.24"30.24"30.21"30.21"30.18"30.18"30.18"30.21"30.18"30.18"30.15"30.15"30.12"30.09"30.09"30.09"30.09"30.12"30.15"30.18"30.18"30.18"30.18"30.18"30.18"30.21"30.21"30.24"30.24"30.27"30.3"30.33"30.36"30.36"30.36"30.33"30.27"30.24"30.24"
Wind Speed 5.4 mph3.9 mph3 mph2.8 mph2.8 mph2.4 mph2.1 mph2.2 mph2.5 mph2.6 mph2.6 mph2.4 mph2.3 mph1.7 mph1.3 mph1.6 mph0.9 mph0.9 mph2.7 mph3.3 mph4.3 mph5.8 mph6.8 mph7.6 mph8.9 mph10.1 mph9.4 mph7.4 mph7.5 mph8.1 mph8.7 mph8.1 mph8.1 mph9 mph9.5 mph8.7 mph7.6 mph7.3 mph6.9 mph6.5 mph6.5 mph7.6 mph7.6 mph7.6 mph7.1 mph6.3 mph5.5 mph4.7 mph
Wind
Direction
251°
WSW
254°
WSW
245°
WSW
209°
SSW
192°
SSW
200°
SSW
203°
SSW
233°
SW
234°
SW
229°
SW
222°
SW
231°
SW
239°
WSW
241°
WSW
275°
W
296°
WNW
278°
W
277°
W
309°
NW
309°
NW
292°
WNW
291°
WNW
299°
WNW
309°
NW
312°
NW
318°
NW
316°
NW
312°
NW
309°
NW
313°
NW
312°
NW
308°
NW
318°
NW
341°
NNW
343°
NNW
347°
NNW
355°
N

N

N
14°
NNE
18°
NNE
10°
N

N
17°
NNE
15°
NNE
13°
NNE

N
356°
N

Daily Forecast

Date High Low Precip. Humidity
Today
Jan 27

Clouds
49 °F
26 °F
0%
43%
Friday
Jan 28

Snow
41 °F
25 °F
55%
49%
Saturday
Jan 29

Clear
31 °F
16 °F
37%
29%
Sunday
Jan 30

Clouds
48 °F
22 °F
0%
45%
Monday
Jan 31

Clouds
50 °F
28 °F
0%
45%
Tuesday
Feb 1

Clouds
50 °F
31 °F
0%
53%
Wednesday
Feb 2

Rain
59 °F
38 °F
100%
63%
Thursday
Feb 3

Rain
61 °F
33 °F
100%
83%
Friday
Feb 4

Snow
36 °F
24 °F
39%
41%
Saturday
Feb 5

Snow
32 °F
21 °F
100%
98%
Sunday
Feb 6

Snow
27 °F
4 °F
25%
83%
Monday
Feb 7

Clouds
32 °F
2 °F
0%
94%
Tuesday
Feb 8

Snow
33 °F
27 °F
100%
100%
Wednesday
Feb 9

Rain
36 °F
33 °F
61%
100%
Thursday
Feb 10

Rain
37 °F
23 °F
91%
98%
Friday
Feb 11

Rain
36 °F
34 °F
100%
99%

Temperature 8-14 Day Outlook



Precipitation 8-14 Day Outlook




Quick Links
Fort Loudoun Lake News
Fort Loudoun Lake Photos
Fort Loudoun Lake Videos




About Us
Contact Us
Site Map
Search Site
Advertise With Us
   
www.FortLoudoun.info
THE FORT LOUDOUN LAKE WEBSITE

Copyright 2022, Lakes Online
Privacy    |    Legal